Simultaneous Nadir Overpasses (SNOs) Predictions

Prediction of SNOs between NOAA-15 and METOP-C Satellite Orbit:

Table of predicted SNOs for the next 14.0 days since TLE Epoch: 5/25/2019
Index Date (NOAA-15) Time (NOAA-15) Lat,Lon (NOAA-15) SZA (NOAA-15 ) Date (METOP-C) Time (METOP-C) Lat,Lon (METOP-C) SZA (METOP-C ) Distance(km) Time Diff (sec)
1 05/25/2019 10:26:30 80.80, 56.49 61.49 05/25/2019 10:25:18 80.80, 56.41 61.45 1.35 72
2 05/25/2019 11:17:04 -80.80,-136.14 118.52 05/25/2019 11:16:00 -80.79,-136.32 118.57 3.35 64
3 05/25/2019 12:07:33 80.80, 31.14 61.47 05/25/2019 12:06:39 80.81, 31.29 61.47 2.67 54
4 05/25/2019 12:58:07 -80.80,-161.48 118.54 05/25/2019 12:57:21 -80.81,-161.45 118.55 0.74 46
5 05/25/2019 13:48:36 80.81, 5.79 61.45 05/25/2019 13:48:01 80.80, 5.81 61.44 0.81 35
6 05/25/2019 14:39:10 -80.81, 173.17 118.56 05/25/2019 14:38:43 -80.80, 173.08 118.58 1.89 27
7 05/25/2019 15:29:39 80.81, -19.55 61.44 05/25/2019 15:29:23 80.79, -19.67 61.40 2.96 16
8 05/25/2019 16:20:13 -80.81, 147.82 118.57 05/25/2019 16:20:04 -80.81, 147.95 118.57 2.40 9
9 05/25/2019 17:10:42 80.82, -44.90 61.42 05/25/2019 17:10:44 80.81, -44.79 61.42 2.28 2
10 05/25/2019 18:01:16 -80.82, 122.47 118.59 05/25/2019 18:01:26 -80.80, 122.48 118.60 1.59 10
11 05/25/2019 18:51:44 80.80, -69.89 61.42 05/25/2019 18:52:05 80.82, -69.92 61.44 1.71 21
12 05/25/2019 19:42:18 -80.80, 97.47 118.59 05/25/2019 19:42:47 -80.81, 97.35 118.58 2.54 29
13 05/25/2019 20:32:47 80.81, -95.24 61.41 05/25/2019 20:33:27 80.81, -95.40 61.41 2.83 40
14 05/25/2019 21:23:21 -80.81, 72.13 118.61 05/25/2019 21:24:08 -80.83, 72.23 118.56 2.81 47
15 05/25/2019 22:13:50 80.81,-120.58 61.39 05/25/2019 22:14:48 80.82,-120.52 61.43 1.57 58
16 05/25/2019 23:04:24 -80.81, 46.78 118.62 05/25/2019 23:05:30 -80.82, 46.75 118.59 0.88 66




NCC Satellite Simultaneous Nadir Overpasses (SNOs) Prediction Service
